Weather in Nueva Loja

Ecuador     0°05′02″N   76°53′10″W
temp.,
°C
wind,
m/s
gust,
m/s
humid.,
%
clouds,
%
prec.,
mm/h
press.,
hPa
HPBL,
m
5 december, sun
sun501:00+21nw119899 0.3 101118
04:00+20wnw119960 3.1 101123
07:00+21wnw0098100 4.7 101321
10:00+25ne018074 0.0 1014331
13:00+30se1355100 0.0 10101262
16:00+29e2364100 0.0 1007936
19:00+22nne1197100 4.7 101011
22:00+21wnw119962 0.4 101240
6 december, mon
mon601:00+21wnw1199100 1.2 101125
04:00+20se0099100 1.2 101114
07:00+21nnw11100100 5.3 101373
10:00+23w0196100 0.9 1015155
13:00+24sw1288100 2.2 1011135
16:00+28ssw006490 0.1 1008732
19:00+23wnw118798 0.2 101111
22:00+22wsw1194100 1.8 101315
7 december, tue
tue701:00+21ssw1610092 4.9 1012235
04:00+21w1310091 3.3 1011181
07:00+21w129998 3.9 1013114
10:00+27ese117587 0.3 1014653
13:00+29ene116746 1.9 10101077
16:00+26ese238788 2.9 1007338
19:00+22ene009787 3.7 101011
22:00+21nw1199100 0.8 101213
8 december, wed
wed801:00+21wnw119986 2.7 101123
04:00+20nnw019974 0.1 101013
07:00+21sw0099100 0.1 101118
10:00+29nnw016493 0.0 1012553
13:00+32ene2347100 0.0 10081665
16:00+31ene1253100 0.0 10051732
19:00+24ne118270 0.0 100711
22:00+22nw118899 0.0 101013
9 december, thu
thu901:00+22w119166 0.0 100917
04:00+21ne11929 0.0 100812
07:00+23nw138754 0.0 101195
10:00+27nne138031 0.6 1011353
13:00+29sw026815 2.6 10081049
16:00+30nne125974 0.1 1005858
19:00+25nw017972 0.1 100611
22:00+24wnw1285100 0.3 100955